Location: Asheville, NC
(35.6000°N, 82.5500°W)
Time: 22:16:01
(UTC-04:00)

UWE-3 - Pass Details

Date: 10 January 2018
Orbit: 584 x 685 km, 97.6° (Epoch: 20 July)

Event Time Altitude Azimuth Distance (km) Brightness Sun altitude
Rises 20:14:04 0° 196° (SSW) 2,825 ? -31.6°
Reaches altitude 10° 20:16:32 10° 210° (SSW) 1,941 ? -32.1°
Maximum altitude 20:19:58 24° 265° (W) 1,273 ? -32.8°
Drops below altitude 10° 20:23:31 10° 320° (NW) 2,000 ? -33.5°
Sets 20:26:06 0° 334° (NNW) 2,931 ? -34.0°
